Location: Hamburg
(53.5511°N, 9.9937°E)
Time: 16:26:41
(UTC+02:00)

ISS - Pass Details

Date: 17 March 2026
Orbit: 416 x 425 km, 51.6° (Epoch: 19 April)

Event Time Altitude Azimuth Distance (km) Brightness Sun altitude
Rises 19:46:05 0° 251° (WSW) 2,386 1.1 -12.3°
Reaches altitude 10° 19:48:13 10° 246° (WSW) 1,519 -0.1 -12.6°
Maximum altitude 19:51:33 54° 169° (SSE) 523 -3.5 -13.1°
Enters shadow 19:53:15 25° 101° (E) 894 -2.7 -13.3°
